TimeCDT,TemperatureF,Dew PointF,Humidity,Sea Level PressureIn,VisibilityMPH,Wind Direction,Wind SpeedMPH,Gust SpeedMPH,PrecipitationIn,Events,Conditions,WindDirDegrees,DateUTC
12:55 AM,59.0,27.0,29,29.75,10.0,SSE,9.2,16.1,N/A,,Clear,150,2012-10-03 05:55:00
1:55 AM,57.0,28.0,33,29.76,10.0,SSE,6.9,-,N/A,,Clear,150,2012-10-03 06:55:00
2:55 AM,55.9,28.0,34,29.75,10.0,SSE,12.7,19.6,N/A,,Clear,150,2012-10-03 07:55:00
3:55 AM,55.0,28.9,37,29.75,10.0,SSE,12.7,-,N/A,,Clear,150,2012-10-03 08:55:00
4:55 AM,53.1,28.9,40,29.76,10.0,SSE,10.4,-,N/A,,Clear,150,2012-10-03 09:55:00
5:55 AM,52.0,28.9,41,29.76,10.0,SSE,11.5,17.3,N/A,,Clear,160,2012-10-03 10:55:00
6:55 AM,51.1,30.0,44,29.77,10.0,SE,6.9,-,N/A,,Clear,140,2012-10-03 11:55:00
7:55 AM,50.0,30.0,46,29.78,10.0,ESE,5.8,-,N/A,,Clear,110,2012-10-03 12:55:00
8:55 AM,53.1,30.9,43,29.77,10.0,East,5.8,-,N/A,,Clear,80,2012-10-03 13:55:00
9:55 AM,59.0,32.0,36,29.74,10.0,ESE,11.5,18.4,N/A,,Clear,120,2012-10-03 14:55:00
10:55 AM,64.9,33.1,31,29.72,10.0,SE,9.2,-,N/A,,Clear,130,2012-10-03 15:55:00
11:55 AM,72.0,36.0,27,29.70,10.0,SE,12.7,-,N/A,,Clear,140,2012-10-03 16:55:00
12:55 PM,75.9,37.9,25,29.65,10.0,SSE,16.1,25.3,N/A,,Clear,150,2012-10-03 17:55:00
1:55 PM,82.0,36.0,19,29.60,10.0,SE,21.9,35.7,N/A,,Clear,140,2012-10-03 18:55:00
2:55 PM,82.9,34.0,17,29.62,10.0,SE,17.3,26.5,N/A,,Clear,140,2012-10-03 19:55:00
3:55 PM,84.0,35.1,17,29.60,10.0,SSE,17.3,25.3,N/A,,Clear,150,2012-10-03 20:55:00
4:55 PM,84.0,39.9,21,29.58,10.0,South,15.0,24.2,N/A,,Partly Cloudy,170,2012-10-03 21:55:00
5:50 PM,80.6,39.2,23,29.62,10.0,West,15.0,23.0,N/A,,Clear,280,2012-10-03 22:50:00
5:55 PM,80.1,39.9,24,29.61,10.0,West,17.3,-,N/A,,Clear,280,2012-10-03 22:55:00
6:38 PM,66.2,37.4,35,29.64,2.5,NW,17.3,27.6,N/A,,Haze,310,2012-10-03 23:38:00
6:55 PM,60.1,37.9,44,29.66,2.5,NW,28.8,35.7,N/A,,Haze,320,2012-10-03 23:55:00
7:14 PM,57.2,37.4,48,29.72,3.0,WNW,28.8,41.4,N/A,,Haze,300,2012-10-04 00:14:00
7:55 PM,53.1,37.9,57,29.78,9.0,NW,33.4,46.0,0.00,,Mostly Cloudy,320,2012-10-04 00:55:00
8:09 PM,53.6,39.2,58,29.78,10.0,NW,28.8,44.9,N/A,,Scattered Clouds,320,2012-10-04 01:09:00
8:55 PM,51.1,41.0,68,29.85,10.0,NW,29.9,42.6,N/A,,Scattered Clouds,320,2012-10-04 01:55:00
9:05 PM,51.8,39.2,62,29.85,10.0,NW,29.9,41.4,N/A,,Mostly Cloudy,320,2012-10-04 02:05:00
9:55 PM,50.0,39.9,68,29.89,10.0,NNW,29.9,42.6,N/A,,Overcast,330,2012-10-04 02:55:00
10:55 PM,46.9,39.0,74,29.95,10.0,NNW,28.8,44.9,N/A,,Overcast,330,2012-10-04 03:55:00
11:55 PM,46.0,37.9,73,29.99,10.0,NNW,25.3,36.8,N/A,,Overcast,330,2012-10-04 04:55:00